Williamstown, MA

1:40 PM EDT on July 28, 2016 (GMT -0400)
Harriman And West

Weather History for KAQW - July, 2013

Change the Weather History Date:

Monday, July 8, 2013

  Actual Average Record
Temperature  
Mean Temperature 75 °F -  
Max Temperature 82 °F 76 °F 88 °F (2008)
Min Temperature 68 °F 54 °F 44 °F (2000)
Cooling Degree Days 10    
Growing Degree Days 25 (Base 50)    
Moisture  
Dew Point 66 °F    
Average Humidity 79    
Maximum Humidity 100    
Minimum Humidity 52    
Precipitation  
Precipitation 0.00 in - - ()
Sea Level Pressure  
Sea Level Pressure 29.99 in    
Wind  
Wind Speed 0 mph (West)    
Max Wind Speed 7 mph    
Max Gust Speed -    
Visibility 9 miles    
Events      
Averages and records for this station are not official NWS values.
T = Trace of Precipitation, MM = Missing Value Source: NWS Daily Summary

Daily Weather History Graph

Daily Weather History Graph

Search for Another Location

Airport or City:

Trip Planner

Search our weather history database for the weather conditions in past years. The results will help you decide how hot, cold, wet, or windy it might be!

Date:

Astronomy

Jul. 08, 2013 Rise Set
Actual Time 5:22 AM EDT 8:32 PM EDT
Civil Twilight 4:48 AM EDT 9:06 PM EDT
Nautical Twilight 4:04 AM EDT 9:50 PM EDT
Astronomical Twilight 3:10 AM EDT 10:43 PM EDT
Moon 5:51 AM EDT (7/8) 8:30 PM EDT (7/8)
Length of Visible Light 16h 18m
Length of Day
15h 09m
New Moon, 0% of the Moon is Illuminated
Jul 8
New Moon
Jul 15
First Quarter
Jul 22
Full
Jul 29
Last Quarter
Aug 6
New

Hourly Weather History & Observations

Time (EDT) Temp. Heat Index Dew Point Humidity Pressure Visibility Wind Dir Wind Speed Gust Speed Precip Events Conditions
12:52 AM 71.1 °F - 70.0 °F 96% 29.94 in 10.0 mi Calm Calm - N/A   Clear
1:52 AM 70.0 °F - 69.1 °F 97% 29.95 in 9.0 mi Calm Calm - N/A   Clear
2:52 AM 69.1 °F - 66.9 °F 93% 29.95 in 8.0 mi Calm Calm - N/A   Scattered Clouds
3:20 AM 69.8 °F - 68.0 °F 94% 29.95 in 7.0 mi Calm Calm - N/A   Partly Cloudy
3:35 AM 68.0 °F - 68.0 °F 100% 29.96 in 5.0 mi Calm Calm - N/A   Mostly Cloudy
3:52 AM 68.0 °F - 68.0 °F 100% 29.95 in 5.0 mi Calm Calm - N/A   Overcast
4:00 AM 69.8 °F - 68.0 °F 94% 29.96 in 6.0 mi Calm Calm - N/A   Overcast
4:41 AM 69.8 °F - 69.8 °F 100% 29.97 in 7.0 mi Calm Calm - N/A   Overcast
4:52 AM 70.0 °F - 69.1 °F 97% 29.96 in 9.0 mi Calm Calm - N/A   Mostly Cloudy
5:52 AM 71.1 °F - 68.0 °F 90% 29.97 in 10.0 mi Calm Calm - N/A   Overcast
6:52 AM 72.0 °F - 69.1 °F 91% 29.98 in 10.0 mi Calm Calm - N/A   Overcast
7:52 AM 73.9 °F - 64.9 °F 73% 29.99 in 10.0 mi Calm Calm - N/A   Overcast
8:52 AM 73.9 °F - 66.0 °F 76% 30.00 in 10.0 mi Calm Calm - N/A   Overcast
9:23 AM 75.2 °F - 64.4 °F 69% 30.01 in 10.0 mi Calm Calm - N/A   Overcast
9:52 AM 75.9 °F - 64.0 °F 67% 30.00 in 10.0 mi Calm Calm - N/A   Overcast
10:52 AM 77.0 °F - 64.0 °F 64% 30.00 in 10.0 mi Calm Calm - N/A   Overcast
11:52 AM 78.1 °F - 64.0 °F 62% 30.01 in 10.0 mi Calm Calm - N/A   Overcast
12:39 PM 75.2 °F - 66.2 °F 73% 30.02 in 10.0 mi Calm Calm - N/A   Overcast
12:50 PM 75.2 °F - 64.4 °F 69% 30.03 in 10.0 mi West 6.9 mph - N/A   Overcast
12:52 PM 75.0 °F - 64.0 °F 69% 30.02 in 10.0 mi Variable 6.9 mph - N/A   Overcast
1:40 PM 75.2 °F - 66.2 °F 73% 30.03 in 10.0 mi Variable 3.5 mph - 0.00 in   Overcast
1:52 PM 75.0 °F - 66.0 °F 73% 30.02 in 10.0 mi Calm Calm - 0.00 in   Overcast
2:52 PM 79.0 °F - 62.1 °F 56% 30.00 in 10.0 mi Calm Calm - N/A   Scattered Clouds
3:52 PM 80.1 °F 81.2 °F 62.1 °F 54% 29.99 in 10.0 mi West 4.6 mph - N/A   Partly Cloudy
4:52 PM 81.0 °F 81.9 °F 62.1 °F 52% 29.98 in 10.0 mi Calm Calm - N/A   Partly Cloudy
5:52 PM 82.0 °F 83.1 °F 63.0 °F 52% 29.97 in 10.0 mi Variable 3.5 mph - N/A   Clear
6:52 PM 80.1 °F 81.7 °F 64.0 °F 58% 29.98 in 10.0 mi Calm Calm - N/A   Partly Cloudy
7:52 PM 77.0 °F - 66.9 °F 71% 29.99 in 10.0 mi Calm Calm - N/A   Overcast
8:52 PM 73.0 °F - 69.1 °F 87% 30.02 in 10.0 mi Calm Calm - N/A   Mostly Cloudy
9:52 PM 71.1 °F - 68.0 °F 90% 30.04 in 9.0 mi Calm Calm - N/A   Partly Cloudy
10:52 PM 70.0 °F - 68.0 °F 93% 30.04 in 9.0 mi Calm Calm - N/A   Mostly Cloudy
11:52 PM 69.1 °F - 66.9 °F 93% 30.04 in 8.0 mi Calm Calm - N/A   Scattered Clouds